Location: Hawk's Hollow Observatory
(42.9278°N, 85.8301°W)
Time: 15:58:49
(UTC-05:00)

Envisat - Visible Passes

Search period start: 16 November 2018 00:00
Search period end: 26 November 2018 00:00
Orbit: 764 x 766 km, 98.2° (Epoch: 16 November)

Date Brightness Start Highest point End Pass type
(mag) Time Alt. Az. Time Alt. Az. Time Alt. Az.
16 Nov 6.3 07:02:56 10° ENE 07:04:35 11° E 07:06:14 10° ESE visible
16 Nov 4.3 18:17:34 10° ESE 18:21:00 19° ENE 18:24:26 10° NNE visible
16 Nov 3.4 19:57:07 30° S 19:59:33 59° W 20:04:35 10° NNW visible
17 Nov 2.9 19:20:08 27° SE 19:22:49 64° ENE 19:27:51 10° N visible
17 Nov 5.6 21:00:21 13° WSW 21:02:17 16° W 21:05:18 10° NW visible
18 Nov 3.7 18:43:09 16° ESE 18:46:17 30° ENE 18:50:41 10° N visible
18 Nov 4.5 20:23:22 26° SW 20:25:12 34° W 20:29:49 10° NNW visible
19 Nov 4.5 18:07:08 10° E 18:09:57 15° ENE 18:12:46 10° NNE visible
19 Nov 3.1 19:46:21 38° S 19:48:20 75° WSW 19:53:27 10° NNW visible
20 Nov 3.1 19:09:20 29° SE 19:11:40 51° ENE 19:16:35 10° N visible
20 Nov 5.3 20:49:33 18° WSW 20:50:58 20° W 20:54:39 10° NW visible
21 Nov 4.0 18:32:18 15° ESE 18:35:12 25° ENE 18:39:15 10° NNE visible
21 Nov 4.0 20:12:31 34° SW 20:13:57 43° W 20:18:48 10° NNW visible
22 Nov 4.7 17:56:59 10° E 17:58:55 12° ENE 18:00:51 10° NE visible
22 Nov 2.8 19:35:29 44° SSE 19:37:09 87° ENE 19:42:16 10° NNW visible
22 Nov 6.0 21:15:41 10° W 21:16:51 11° W 21:18:12 10° WNW visible
23 Nov 3.3 18:58:25 27° ESE 19:00:32 40° ENE 19:05:17 10° N visible
23 Nov 5.0 20:38:37 23° WSW 20:39:41 25° W 20:43:50 10° NW visible
24 Nov 6.1 07:05:36 10° ENE 07:07:49 13° E 07:10:02 10° ESE visible
24 Nov 4.2 18:21:20 13° E 18:24:07 20° ENE 18:27:45 10° NNE visible
24 Nov 3.6 20:01:32 44° SW 20:02:44 54° W 20:07:43 10° NNW visible
25 Nov 2.8 19:24:27 44° SE 19:25:58 70° ENE 19:31:03 10° N visible
25 Nov 5.7 21:04:39 14° W 21:05:29 14° W 21:08:11 10° WNW visible
